Location: Niles Junction
(37.5763°N, 121.9714°W)
Time: 04:31:36
(UTC+00:00)

ATLAS CENTAUR R/B - Pass Details

Date: 29 October 2020
Orbit: 478 x 667 km, 64.7° (Epoch: 22 November)

Event Time Altitude Azimuth Distance (km) Brightness Sun altitude
Rises 12:39:45 0° 182° (S) 2,695 4.8 -22.5°
Reaches altitude 10° 12:42:16 10° 169° (S) 1,773 4.0 -22.0°
Maximum altitude 12:45:30 25° 114° (ESE) 1,080 3.5 -21.3°
Drops below altitude 10° 12:48:38 10° 58° (ENE) 1,708 4.6 -20.7°
Sets 12:51:00 0° 45° (NE) 2,574 5.4 -20.2°
